Terminal Aerodrome Forecast
Issued by NWS

Home | Current Version | Previous Version | Text Only | Print | Product List | Glossary On
Versions: 1 2 3 4 5 6 7 8 9 10 11 12 13 14 15 16 17 18 19 20 21 22 23 24 25 26 27 28 29 30 31 32 33 34 35 36 37 38 39 40 41 42 43 44 45 46 47 48 49 50
000
FTUS44 KHGX 261134
TAFCXO
TAF
KCXO 261134Z 2612/2712 23003KT 6SM BR OVC007
      TEMPO 2613/2617 SCT012
     FM261700 11004KT P6SM SCT012 SCT120
     FM261900 16007KT P6SM FEW040 BKN150
     FM270300 14006KT 6SM BR FEW010
     FM270900 16005KT 6SM BR VCTS SCT006 BKN012CB=

USA.gov is the U.S. government's official web portal to all federal, state and local government web resources and services.